Hourly Weather Otyassy

Today, 30 July, Friday

Time Temperature Precipitation Wind Pressure Humidity
00:00 +20°C° 0.1 mm 0 mps 745 mmHg 80%
01:00 +22°C° 0 mm 1 mps 745 mmHg 81%
02:00 +21°C° 0 mm 1 mps 745 mmHg 82%
03:00 +21°C° 0 mm 1 mps 745 mmHg 84%
04:00 +21°C° 0 mm 1 mps 745 mmHg 83%
05:00 +22°C° 0 mm 1 mps 745 mmHg 82%
06:00 +22°C° 0 mm 1 mps 745 mmHg 81%
07:00 +24°C° 0.1 mm 1 mps 745 mmHg 74%
08:00 +26°C° 0.1 mm 2 mps 745 mmHg 67%
09:00 +28°C° 0 mm 2 mps 745 mmHg 60%
10:00 +29°C° 0 mm 3 mps 744 mmHg 54%
11:00 +31°C° 0 mm 3 mps 744 mmHg 47%
12:00 +33°C° 0 mm 4 mps 744 mmHg 41%
13:00 +33°C° 0 mm 4 mps 744 mmHg 41%
14:00 +33°C° 0 mm 4 mps 743 mmHg 42%
15:00 +32°C° 0 mm 4 mps 743 mmHg 46%
16:00 +30°C° 0.1 mm 4 mps 742 mmHg 52%
17:00 +29°C° 0.1 mm 4 mps 742 mmHg 57%
18:00 +28°C° 0.1 mm 4 mps 742 mmHg 63%
19:00 +26°C° 0.5 mm 3 mps 742 mmHg 73%
20:00 +24°C° 0.5 mm 2 mps 743 mmHg 83%
21:00 +22°C° 0.5 mm 1 mps 743 mmHg 92%
22:00 +21°C° 0 mm 2 mps 743 mmHg 93%
23:00 +20°C° 0 mm 2 mps 743 mmHg 94%

Tomorrow, 31 July, Saturday

Time Temperature Precipitation Wind Pressure Humidity
00:00 +20°C° 0 mm 2 mps 743 mmHg 94%
01:00 +20°C° 0 mm 2 mps 743 mmHg 95%
02:00 +19°C° 0 mm 2 mps 743 mmHg 95%
03:00 +19°C° 0 mm 2 mps 743 mmHg 96%
04:00 +19°C° 0 mm 3 mps 744 mmHg 95%
05:00 +19°C° 0 mm 3 mps 744 mmHg 94%
06:00 +19°C° 0 mm 3 mps 744 mmHg 93%
07:00 +21°C° 0 mm 3 mps 745 mmHg 82%
08:00 +23°C° 0 mm 4 mps 745 mmHg 70%
09:00 +26°C° 0 mm 4 mps 745 mmHg 59%
10:00 +27°C° 0 mm 4 mps 746 mmHg 52%
11:00 +28°C° 0 mm 5 mps 746 mmHg 44%
12:00 +29°C° 0 mm 5 mps 746 mmHg 37%
13:00 +30°C° 0 mm 5 mps 746 mmHg 35%
14:00 +32°C° 0 mm 5 mps 746 mmHg 33%
15:00 +32°C° 0 mm 4 mps 746 mmHg 31%
16:00 +32°C° 0 mm 4 mps 746 mmHg 33%
17:00 +30°C° 0 mm 4 mps 746 mmHg 35%
18:00 +30°C° 0 mm 4 mps 746 mmHg 37%
19:00 +28°C° 0 mm 3 mps 746 mmHg 42%
20:00 +26°C° 0 mm 2 mps 747 mmHg 46%
21:00 +24°C° 0 mm 1 mps 747 mmHg 51%
22:00 +24°C° 0 mm 1 mps 747 mmHg 52%
23:00 +24°C° 0 mm 1 mps 747 mmHg 53%

Day after tomorrow, 1 August, Sunday

Time Temperature Precipitation Wind Pressure Humidity
00:00 +24°C° 0 mm 1 mps 748 mmHg 54%
01:00 +23°C° 0 mm 1 mps 748 mmHg 57%
02:00 +21°C° 0 mm 2 mps 748 mmHg 61%
03:00 +20°C° 0 mm 2 mps 748 mmHg 64%
04:00 +21°C° 0 mm 1 mps 749 mmHg 66%
05:00 +21°C° 0 mm 1 mps 749 mmHg 67%
06:00 +21°C° 0 mm 1 mps 749 mmHg 68%
07:00 +24°C° 0 mm 1 mps 749 mmHg 60%
08:00 +26°C° 0 mm 1 mps 749 mmHg 53%
09:00 +28°C° 0 mm 1 mps 750 mmHg 45%
10:00 +29°C° 0 mm 2 mps 750 mmHg 41%
11:00 +31°C° 0 mm 2 mps 750 mmHg 36%
12:00 +33°C° 0 mm 3 mps 749 mmHg 32%
13:00 +33°C° 0 mm 3 mps 749 mmHg 30%
14:00 +34°C° 0 mm 3 mps 749 mmHg 29%
15:00 +35°C° 0 mm 3 mps 749 mmHg 27%
16:00 +34°C° 0 mm 2 mps 749 mmHg 30%
17:00 +33°C° 0 mm 1 mps 749 mmHg 33%
18:00 +32°C° 0 mm 1 mps 748 mmHg 36%
19:00 +30°C° 0 mm 1 mps 748 mmHg 40%
20:00 +28°C° 0 mm 2 mps 748 mmHg 44%
21:00 +26°C° 0 mm 3 mps 748 mmHg 48%
22:00 +25°C° 0 mm 3 mps 748 mmHg 48%
23:00 +25°C° 0 mm 3 mps 748 mmHg 49%

2 August, Monday

Time Temperature Precipitation Wind Pressure Humidity
00:00 +24°C° 0 mm 3 mps 748 mmHg 50%
01:00 +24°C° 0 mm 3 mps 748 mmHg 52%
02:00 +22°C° 0 mm 3 mps 748 mmHg 53%
03:00 +22°C° 0 mm 3 mps 748 mmHg 55%
04:00 +22°C° 0 mm 3 mps 749 mmHg 57%
05:00 +23°C° 0 mm 2 mps 749 mmHg 58%
06:00 +23°C° 0 mm 2 mps 749 mmHg 60%
07:00 +26°C° 0 mm 3 mps 749 mmHg 54%
08:00 +28°C° 0 mm 3 mps 749 mmHg 49%
09:00 +30°C° 0 mm 4 mps 748 mmHg 43%
10:00 +33°C° 0 mm 4 mps 748 mmHg 39%
11:00 +34°C° 0 mm 4 mps 748 mmHg 36%
12:00 +36°C° 0 mm 4 mps 747 mmHg 32%
13:00 +36°C° 0 mm 4 mps 747 mmHg 30%
14:00 +37°C° 0 mm 5 mps 747 mmHg 29%
15:00 +37°C° 0 mm 5 mps 746 mmHg 27%
16:00 +36°C° 0 mm 4 mps 746 mmHg 29%
17:00 +35°C° 0 mm 3 mps 745 mmHg 31%
18:00 +34°C° 0 mm 3 mps 745 mmHg 33%
19:00 +31°C° 0.1 mm 3 mps 745 mmHg 38%
20:00 +29°C° 0.1 mm 3 mps 745 mmHg 43%
21:00 +27°C° 0.1 mm 2 mps 745 mmHg 47%
22:00 +27°C° 0 mm 3 mps 745 mmHg 49%
23:00 +26°C° 0 mm 3 mps 745 mmHg 51%

3 August, Tuesday

Time Temperature Precipitation Wind Pressure Humidity
00:00 +26°C° 0 mm 4 mps 744 mmHg 52%
01:00 +25°C° 0 mm 3 mps 745 mmHg 57%
02:00 +24°C° 0 mm 2 mps 745 mmHg 61%
03:00 +23°C° 0 mm 1 mps 745 mmHg 66%
04:00 +24°C° 0 mm 2 mps 745 mmHg 65%
05:00 +24°C° 0 mm 2 mps 745 mmHg 64%
06:00 +25°C° 0 mm 3 mps 745 mmHg 63%
07:00 +24°C° 0.2 mm 3 mps 746 mmHg 68%
08:00 +24°C° 0.2 mm 2 mps 746 mmHg 74%
09:00 +23°C° 0.2 mm 2 mps 746 mmHg 79%
10:00 +25°C° 0 mm 3 mps 746 mmHg 69%
11:00 +27°C° 0 mm 4 mps 746 mmHg 60%
12:00 +29°C° 0 mm 5 mps 746 mmHg 50%
13:00 +30°C° 0 mm 5 mps 746 mmHg 49%
14:00 +30°C° 0 mm 5 mps 745 mmHg 48%
15:00 +30°C° 0 mm 5 mps 745 mmHg 47%
16:00 +27°C° 2.2 mm 4 mps 745 mmHg 59%
17:00 +25°C° 2.2 mm 3 mps 745 mmHg 72%
18:00 +21°C° 2.2 mm 2 mps 745 mmHg 84%
19:00 +20°C° 0.1 mm 2 mps 745 mmHg 86%
20:00 +20°C° 0.1 mm 2 mps 746 mmHg 88%
21:00 +19°C° 0.1 mm 2 mps 746 mmHg 91%
22:00 +19°C° 0.3 mm 2 mps 746 mmHg 92%
23:00 +18°C° 0.3 mm 2 mps 746 mmHg 94%

4 August, Wednesday

Time Temperature Precipitation Wind Pressure Humidity
00:00 +18°C° 0.3 mm 3 mps 747 mmHg 95%
01:00 +18°C° 0 mm 3 mps 747 mmHg 95%
02:00 +17°C° 0 mm 3 mps 747 mmHg 96%
03:00 +17°C° 0 mm 4 mps 747 mmHg 96%
04:00 +17°C° 0 mm 4 mps 748 mmHg 95%
05:00 +15°C° 0 mm 4 mps 748 mmHg 94%
06:00 +15°C° 0 mm 4 mps 748 mmHg 93%
07:00 +18°C° 0 mm 4 mps 749 mmHg 84%
08:00 +20°C° 0 mm 4 mps 749 mmHg 75%
09:00 +21°C° 0 mm 4 mps 749 mmHg 66%
10:00 +22°C° 0 mm 4 mps 749 mmHg 60%
11:00 +25°C° 0 mm 4 mps 750 mmHg 53%
12:00 +26°C° 0 mm 5 mps 750 mmHg 46%
13:00 +27°C° 0 mm 4 mps 750 mmHg 43%
14:00 +27°C° 0 mm 4 mps 750 mmHg 40%
15:00 +28°C° 0 mm 4 mps 750 mmHg 37%
16:00 +27°C° 0 mm 4 mps 750 mmHg 39%
17:00 +27°C° 0 mm 4 mps 750 mmHg 41%
18:00 +26°C° 0 mm 4 mps 750 mmHg 43%
19:00 +25°C° 0 mm 3 mps 750 mmHg 47%
20:00 +22°C° 0 mm 3 mps 751 mmHg 52%
21:00 +21°C° 0 mm 2 mps 751 mmHg 57%
22:00 +20°C° 0 mm 2 mps 751 mmHg 60%
23:00 +19°C° 0 mm 2 mps 751 mmHg 64%
Show more